Location: Unspecified
(0.0000°N, 0.0000°E)
Time: 09:44:00
(UTC+02:00)

Ariane H10+ - Visible Passes

Search period start: 27 July 2016 00:00
Search period end: 06 August 2016 00:00
Orbit: 294 x 31408 km, 7.2° (Epoch: 26 July)

Date Brightness Start Highest point End Pass type
(mag) Time Alt. Az. Time Alt. Az. Time Alt. Az.
28 Jul 6.0 05:25:13 62° W 05:29:07 88° N 13:42:53 10° E visible
30 Jul 7.2 03:14:00 29° E 03:14:00 29° E 03:33:06 10° E visible
30 Jul 4.6 20:42:46 10° W 21:06:29 54° SSW 21:09:28 22° SE visible
31 Jul 7.0 06:43:13 21° W 07:01:40 83° N 15:11:04 10° E visible
02 Aug 6.2 04:31:51 79° E 04:31:51 79° E 12:40:17 10° E visible
02 Aug 5.4 22:23:21 10° WSW 22:27:06 21° SW 22:27:06 21° SW visible
04 Aug 7.9 02:20:24 12° E 02:20:24 12° E 02:22:13 10° E visible
05 Aug 6.5 05:49:29 45° W 05:58:08 83° N 14:11:47 10° E visible
